Location: Waco, TX
(31.5480°N, 97.1670°W)
Time: 00:53:22
(UTC-06:00)

ISS - Pass Details

Date: 22 January 2018
Orbit: 402 x 407 km, 51.6° (Epoch: 21 January)

Event Time Altitude Azimuth Distance (km) Brightness Sun altitude
Rises 04:50:14 0° 300° (WNW) 2,317 - -33.1°
Reaches altitude 10° 04:52:36 10° 284° (WNW) 1,456 - -32.6°
Maximum altitude 04:55:11 22° 232° (SW) 946 - -32.1°
Drops below altitude 10° 04:57:45 10° 179° (S) 1,451 - -31.5°
Sets 05:00:07 0° 163° (SSE) 2,307 - -31.0°
